Simultaneous Nadir Overpasses (SNOs) Predictions

Prediction of SNOs between GOES-16 and NOAA-19 Satellite Orbit:

Table of predicted SNOs for the next 14.0 days since TLE Epoch: 6/22/2024
Index Date Time (GOES-16) GOES-16 Lat,Lon NOAA-19 Lat,Lon Distance(km) Time Diff (sec)
1 06/23/2024 02:33:05 -0.04, -75.20 -0.95, -79.25 461.04 80
2 06/24/2024 02:20:46 -0.04, -75.21 -0.31, -76.25 119.65 80
3 06/25/2024 02:11:09 -0.04, -75.21 0.39, -73.26 221.99 80
4 06/27/2024 14:27:58 0.03, -75.24 0.63, -77.91 304.41 80
5 06/28/2024 14:18:19 0.03, -75.25 -0.02, -74.91 38.08 80
6 06/29/2024 14:06:02 0.03, -75.26 -0.73, -71.93 380.51 80
7 07/01/2024 02:37:46 -0.03, -75.27 -0.99, -79.55 487.52 80
8 07/02/2024 02:25:28 -0.03, -75.29 -0.34, -76.55 144.84 80
9 07/03/2024 02:10:30 -0.03, -75.30 0.38, -73.57 197.91 80
10 07/05/2024 14:29:57 0.02, -75.35 0.69, -78.20 325.84 80
